Wind_Speed
16 12 10 7 5 6 5 5 7 6 5 3 3 2 2 4 1 1 5 8 9 8 10 7 9 11 14 16 19 19 22 23 26 27 26 24 23 22 20 19 18 17 16 14
23 20 17 16 14 12 11 9 7 8 2 1 8 8 10 9 11 7 5 7 3 9 7 7 12 16 17 17 17 19 25 27 28 24 24 20 21 21 20 19 18 18 17 17
23 20 17 14 12 11 9 8 6 4 1 3 5 10 15 14 10 8 9 10 11 10 13 17 18 21 21 18 21 24 24 22 18 18 19 20 20 20 21 22 21 20 19 19
23 23 20 15 11 7 6 6 7 6 6 8 11 17 17 19 19 14 16 15 14 15 16 18 20 23 22 23 25 24 19 17 20 23 24 23 24 25 25 25 25 25 25 25
24 19 17 16 14 11 9 7 6 6 8 11 14 18 7 10 10 12 14 15 15 17 18 19 20 20 23 21 19 15 19 22 24 24 25 27 28 28 28 27 28 27 26 25
29 27 22 14 11 10 10 9 8 8 9 9 9 8 4 4 5 9 13 15 16 16 18 19 17 15 12 13 16 19 22 23 24 26 27 25 22 22 24 26 27 27 27 29
28 24 24 23 21 19 14 11 11 12 13 14 13 12 7 3 2 1 1 1 1 2 4 5 9 12 15 18 19 20 21 23 22 17 15 17 20 22 26 28 29 31 33 34
27 25 22 21 21 21 19 17 18 18 17 15 14 12 11 10 9 8 7 6 7 8 10 12 14 15 17 17 16 18 17 14 15 18 19 21 24 26 27 28 29 31 34 37
32 29 22 20 19 19 17 16 20 19 17 17 18 16 13 12 9 6 5 4 4 5 5 8 8 11 12 14 14 15 16 17 19 21 23 24 26 27 27 27 31 35 35 38
33 29 23 21 17 15 13 12 13 18 17 17 17 15 16 14 13 11 9 9 9 8 9 10 13 14 17 17 16 15 17 20 21 20 22 25 26 28 28 28 27 30 29 33
34 29 26 24 22 20 16 11 11 15 15 15 17 17 17 14 11 12 10 10 10 11 12 14 16 16 17 19 19 16 18 21 22 21 23 25 29 30 29 32 32 36 35 37
25 32 30 36 30 28 27 25 25 21 18 14 17 14 16 16 16 17 15 12 6 6 10 13 14 15 14 18 22 25 27 25 23 22 22 25 26 28 33 36 37 39 42 43
34 30 36 43 39 36 36 33 30 30 27 26 23 22 20 20 21 22 20 19 16 14 18 22 19 20 21 22 23 27 31 34 34 36 35 39 37 40 45 46 46 49 52 54
48 44 44 45 46 40 37 37 38 36 35 30 31 31 29 30 28 26 27 25 24 24 25 29 31 29 31 33 35 36 37 39 41 43 44 46 48 50 50 54 59 57 62 60
61 52 51 52 47 49 47 43 44 43 42 40 36 36 37 38 36 30 31 35 34 34 38 39 35 35 38 39 39 38 35 37 39 44 48 51 55 56 58 61 62 64 64 64
70 66 64 59 58 52 52 53 49 49 49 48 45 40 42 43 44 44 43 43 44 44 45 44 45 53 48 43 44 46 49 50 52 48 49 56 54 57 62 62 61 63 70 71
78 79 76 68 64 63 58 56 58 56 55 53 53 51 48 46 48 50 49 46 47 49 49 52 52 55 54 52 51 53 52 58 57 59 61 58 60 60 65 69 67 68 72 75
84 85 85 82 75 71 71 69 64 61 64 64 60 57 58 56 55 53 53 53 52 50 54 52 54 60 59 57 56 60 59 64 66 65 69 70 71 68 67 71 72 77 75 76
89 92 93 91 89 83 79 78 76 73 71 71 70 68 62 62 63 63 63 62 62 61 61 59 58 59 59 62 64 61 67 69 71 73 71 71 71 76 77 78 78 83 82 81
94 94 94 96 99 96 90 88 87 85 84 80 76 75 75 71 69 69 69 68 71 71 70 69 68 68 68 65 60 67 73 75 74 77 77 73 76 82 80 80 82 84 84 86
84 88 95 97 98 101 101 98 93 91 91 91 89 88 85 83 81 78 75 75 74 75 75 77 75 79 77 72 71 75 77 79 80 79 77 78 82 81 82 83 83 82 85 88
82 83 85 86 91 93 98 100 101 100 99 100 99 98 96 95 92 90 88 86 86 85 84 84 81 81 80 80 80 81 82 84 81 82 83 83 85 82 84 84 82 83 86 88
82 82 83 84 85 89 91 94 96 99 103 105 105 106 107 106 102 99 99 99 96 95 94 91 88 87 86 87 87 87 87 88 86 84 83 83 83 83 82 83 81 84 86 86
79 78 82 81 79 78 82 84 87 91 92 94 97 100 103 103 102 102 102 102 104 103 101 98 95 94 93 92 91 92 93 95 92 86 85 83 79 77 79 81 80 86 84 86
77 79 79 80 81 82 81 82 84 87 88 91 91 95 90 90 96 100 97 95 94 98 101 101 98 96 96 95 94 95 95 95 94 89 85 84 82 83 82 81 81 85 85 84
75 76 75 76 76 76 74 75 78 82 83 84 84 86 86 85 83 83 85 87 88 88 89 89 88 87 86 90 92 93 93 91 89 86 82 83 84 83 85 85 84 84 84 87
71 70 70 71 71 67 68 69 70 73 75 75 77 80 78 78 79 79 81 85 86 86 85 83 83 84 83 81 84 84 82 82 82 82 81 82 82 83 84 84 82 83 84 86
Wind_Direction
77 76 78 91 104 120 106 103 96 93 87 76 140 82 218 209 176 264 326 248 222 216 220 239 303 302 314 314 316 311 324 322 317 316 321 323 328 337 345 347 346 346 345 347
61 58 59 59 58 57 59 61 33 38 131 321 223 261 228 208 229 241 235 207 243 247 271 277 283 298 305 316 318 317 314 310 314 317 325 330 337 339 342 342 344 341 336 330
55 54 55 52 53 61 77 86 99 123 160 336 326 292 267 245 236 236 238 228 232 259 256 268 284 293 307 312 319 316 317 318 327 331 335 337 336 333 335 338 338 334 329 324
47 48 47 47 49 57 59 69 88 70 26 358 338 320 266 248 243 249 250 262 266 267 275 286 289 297 305 314 316 316 323 328 328 329 329 326 327 331 334 332 333 332 329 326
34 33 34 37 44 55 62 55 42 19 1 354 343 335 247 235 237 244 258 267 272 268 275 287 291 301 312 309 312 314 317 319 322 323 324 329 331 331 331 331 332 333 332 330
42 39 31 21 18 10 0 357 348 338 338 342 348 354 43 170 237 264 270 272 275 280 282 289 295 304 309 307 308 309 310 313 316 319 322 327 330 334 335 333 333 331 330 331
32 39 39 39 35 26 12 357 344 342 343 339 335 341 348 22 64 151 195 300 340 315 311 293 286 285 287 289 291 295 300 307 312 319 326 327 329 332 330 329 330 332 334 336
12 15 18 22 28 28 33 33 32 26 18 12 5 357 356 346 324 303 290 287 289 292 292 292 295 297 294 303 302 298 304 315 325 328 324 322 321 327 333 336 339 339 339 339
357 357 3 9 18 18 24 54 51 44 40 34 24 20 13 11 5 352 346 355 342 330 327 323 317 316 316 317 327 326 324 327 329 327 325 326 325 329 333 336 340 346 348 348
341 341 344 349 352 3 19 14 6 13 14 17 14 16 19 12 6 357 350 339 340 343 357 338 337 339 340 337 340 339 332 327 331 335 334 333 331 330 327 327 335 339 340 334
323 330 325 324 329 329 330 335 346 346 0 2 6 11 12 1 8 13 14 19 16 12 12 358 348 344 330 327 330 331 325 322 323 329 335 335 331 333 333 335 335 332 330 327
307 310 310 312 315 318 317 323 324 316 321 326 331 340 340 348 346 351 343 339 352 2 340 339 333 336 330 330 337 338 337 330 321 325 323 323 327 328 334 331 332 338 338 330
286 278 287 298 306 306 308 312 313 310 312 310 310 307 312 317 322 323 324 318 320 325 334 324 327 325 326 324 324 329 333 335 336 329 325 329 327 329 326 328 328 331 333 331
284 284 280 290 294 295 298 301 306 303 305 305 298 306 309 309 309 306 309 308 310 308 300 311 314 308 313 315 313 316 319 321 324 324 323 321 322 323 325 326 325 325 329 328
281 278 277 278 282 288 290 287 292 296 299 300 298 294 297 298 301 295 298 301 298 301 304 306 300 305 300 303 310 307 305 310 315 321 325 325 318 318 318 319 320 324 323 326
275 275 276 273 274 273 277 279 281 284 290 292 291 286 286 288 291 296 298 296 300 299 296 297 302 308 307 296 298 303 309 311 312 311 317 320 323 322 326 322 313 316 325 326
268 271 273 270 268 269 267 269 273 274 279 281 280 282 281 280 281 284 288 290 293 295 295 297 295 299 302 300 297 299 302 307 310 308 309 314 318 316 319 322 323 321 320 324
263 265 267 270 269 269 268 269 264 266 270 273 275 274 274 275 277 278 280 283 284 285 286 289 289 292 295 298 296 296 298 301 306 307 304 303 309 312 315 316 317 317 318 321
260 261 262 265 266 266 267 268 268 269 271 268 269 269 270 272 274 277 279 282 284 286 285 285 285 286 291 291 293 293 295 301 301 303 303 303 303 307 310 310 310 313 316 316
263 261 260 262 264 264 264 266 266 268 269 269 269 268 271 270 270 272 275 276 281 285 287 286 286 288 292 294 290 288 294 295 297 299 301 301 300 303 305 306 307 312 312 313
262 259 259 259 261 263 262 262 263 265 267 268 270 271 271 273 271 271 272 273 275 277 281 282 284 287 290 293 291 291 294 294 294 295 297 298 298 298 301 302 305 306 307 309
262 258 259 262 260 260 262 264 263 261 262 265 267 268 269 272 272 273 274 274 275 275 276 278 280 283 284 286 287 289 292 295 296 295 294 294 295 297 298 300 302 304 305 307
261 262 262 261 260 259 260 262 263 264 263 263 265 266 269 270 271 271 272 273 274 277 278 280 281 281 282 282 284 288 290 292 294 294 294 293 294 295 296 298 299 301 303 306
260 260 260 260 259 260 260 260 261 261 262 264 266 267 268 269 270 271 271 272 274 274 275 276 277 278 278 280 282 283 287 290 290 292 290 289 293 295 295 296 299 298 302 304
261 260 261 261 261 261 261 261 261 261 262 264 264 263 265 267 266 268 270 271 272 273 273 276 278 279 278 279 281 283 285 286 288 288 288 285 288 292 293 293 295 296 300 304
261 259 259 261 263 263 263 264 265 264 264 265 265 264 265 266 266 266 266 268 270 271 271 272 275 275 276 277 279 282 283 283 283 284 284 283 285 288 290 291 292 296 300 301
261 262 262 262 263 261 262 263 264 265 265 263 263 266 266 265 265 265 264 264 265 267 271 273 275 275 275 275 277 278 280 280 282 283 283 283 284 286 287 289 292 294 296 299
Height
10541 10541 10541 10541 10542 10543 10544 10545 10545 10546 10547 10549 10550 10551 10552 10553 10555 10556 10556 10556 10557 10558 10559 10560 10560 10559 10556 10554 10552 10550 10547 10543 10538 10533 10529 10524 10519 10514 10509 10504 10500 10496 10493 10491
10547 10546 10546 10546 10545 10545 10546 10546 10547 10548 10549 10550 10550 10550 10551 10552 10552 10553 10554 10555 10556 10557 10557 10557 10556 10554 10552 10550 10547 10545 10542 10537 10533 10529 10525 10520 10515 10511 10507 10503 10500 10497 10494 10492
10552 10551 10550 10550 10549 10549 10549 10549 10549 10549 10550 10550 10550 10549 10548 10549 10550 10550 10551 10553 10553 10553 10553 10553 10552 10550 10548 10545 10543 10540 10536 10532 10529 10526 10522 10518 10514 10509 10505 10501 10497 10494 10492 10489
10559 10556 10553 10552 10551 10550 10550 10550 10550 10550 10549 10548 10546 10544 10543 10544 10545 10547 10548 10549 10549 10549 10549 10548 10547 10545 10542 10540 10537 10534 10532 10529 10526 10523 10519 10515 10510 10506 10502 10498 10494 10491 10487 10484
10562 10560 10559 10557 10555 10553 10552 10551 10550 10549 10548 10545 10543 10539 10536 10538 10541 10542 10543 10544 10544 10543 10543 10542 10541 10539 10536 10534 10532 10531 10528 10525 10522 10519 10515 10512 10508 10503 10499 10495 10491 10488 10485 10482
10569 10566 10563 10560 10558 10556 10554 10553 10551 10549 10546 10544 10542 10540 10536 10535 10536 10538 10538 10539 10539 10538 10538 10537 10535 10533 10531 10529 10527 10524 10522 10519 10516 10513 10510 10507 10503 10499 10495 10491 10488 10484 10480 10476
10575 10571 10568 10564 10561 10558 10556 10554 10551 10549 10547 10545 10543 10540 10538 10536 10535 10535 10535 10534 10532 10532 10531 10530 10529 10527 10525 10523 10521 10518 10515 10513 10511 10507 10505 10502 10498 10494 10490 10486 10482 10479 10475 10470
10578 10575 10571 10568 10564 10561 10558 10556 10553 10551 10548 10546 10544 10541 10539 10537 10535 10534 10532 10531 10530 10529 10528 10528 10526 10524 10522 10519 10517 10514 10512 10510 10507 10503 10500 10497 10493 10490 10486 10481 10477 10473 10469 10464
10579 10577 10574 10571 10567 10563 10561 10559 10556 10554 10551 10548 10545 10542 10540 10538 10535 10533 10531 10530 10529 10528 10527 10526 10524 10522 10519 10517 10514 10512 10510 10506 10503 10499 10496 10492 10488 10484 10480 10475 10471 10466 10461 10456
10578 10576 10573 10571 10568 10565 10562 10559 10557 10554 10552 10548 10544 10542 10539 10536 10535 10534 10532 10530 10528 10527 10525 10523 10521 10519 10516 10514 10511 10509 10506 10503 10499 10495 10491 10486 10483 10478 10474 10469 10464 10459 10455 10449
10573 10572 10570 10568 10566 10564 10562 10559 10555 10553 10550 10548 10545 10542 10539 10536 10534 10533 10531 10529 10527 10525 10523 10520 10518 10515 10512 10510 10508 10505 10502 10498 10493 10489 10484 10481 10477 10473 10468 10464 10459 10454 10448 10441
10568 10564 10562 10558 10560 10559 10556 10555 10552 10549 10547 10545 10543 10541 10538 10536 10533 10532 10529 10527 10524 10522 10519 10517 10514 10511 10509 10506 10503 10500 10496 10493 10488 10484 10480 10476 10472 10467 10462 10457 10451 10445 10440 10434
10560 10558 10553 10549 10552 10550 10547 10546 10545 10542 10541 10539 10538 10535 10533 10531 10530 10527 10525 10523 10521 10519 10517 10514 10511 10508 10505 10500 10496 10492 10488 10484 10481 10477 10474 10469 10464 10459 10452 10448 10441 10436 10429 10422
10544 10546 10542 10540 10537 10540 10540 10538 10536 10534 10532 10531 10529 10527 10526 10523 10522 10520 10519 10516 10514 10511 10509 10507 10504 10502 10498 10495 10491 10486 10481 10477 10472 10468 10464 10459 10454 10449 10443 10435 10429 10423 10417 10409
10524 10531 10530 10529 10528 10523 10523 10525 10525 10523 10522 10520 10519 10517 10516 10515 10513 10511 10508 10507 10505 10502 10499 10497 10494 10491 10487 10484 10480 10476 10472 10467 10464 10459 10454 10449 10443 10436 10431 10424 10416 10409 10403 10396
10507 10508 10512 10514 10512 10512 10512 10511 10511 10506 10506 10507 10507 10505 10504 10502 10500 10499 10497 10495 10493 10491 10487 10484 10482 10479 10476 10471 10467 10464 10460 10456 10452 10446 10441 10436 10431 10424 10418 10411 10404 10396 10388 10381
10491 10488 10488 10492 10492 10493 10494 10494 10494 10493 10492 10492 10491 10489 10488 10487 10486 10484 10483 10481 10478 10477 10474 10471 10468 10465 10462 10458 10454 10450 10447 10442 10437 10432 10426 10422 10416 10410 10404 10397 10390 10381 10373 10366
10469 10467 10466 10466 10467 10470 10470 10473 10473 10473 10473 10472 10472 10471 10471 10469 10468 10468 10467 10465 10463 10461 10459 10456 10453 10450 10446 10443 10439 10434 10430 10426 10422 10417 10412 10406 10401 10395 10389 10382 10375 10367 10358 10349
10440 10442 10442 10442 10442 10443 10445 10447 10448 10448 10448 10449 10450 10450 10450 10450 10449 10448 10448 10447 10445 10443 10441 10438 10436 10433 10429 10426 10421 10418 10414 10409 10405 10401 10395 10390 10383 10378 10371 10366 10357 10350 10341 10332
10407 10410 10412 10414 10415 10416 10419 10421 10422 10423 10424 10425 10425 10426 10428 10427 10427 10428 10428 10427 10425 10422 10420 10418 10416 10413 10410 10407 10403 10400 10396 10391 10386 10381 10376 10371 10366 10360 10354 10347 10340 10331 10323 10315
10372 10375 10378 10381 10385 10388 10391 10392 10393 10396 10398 10398 10399 10400 10402 10403 10403 10402 10403 10402 10403 10400 10399 10397 10396 10393 10391 10387 10384 10381 10376 10372 10367 10362 10356 10351 10347 10341 10334 10327 10321 10313 10304 10296
10338 10343 10347 10351 10355 10358 10360 10362 10365 10367 10369 10370 10372 10373 10375 10377 10378 10378 10379 10378 10376 10377 10376 10373 10373 10373 10370 10367 10364 10360 10355 10351 10346 10341 10335 10330 10325 10320 10313 10306 10300 10293 10284 10275
10306 10310 10313 10319 10323 10327 10330 10333 10335 10338 10340 10342 10343 10344 10347 10349 10352 10353 10351 10351 10353 10350 10350 10349 10350 10348 10345 10341 10339 10336 10332 10327 10323 10318 10313 10307 10303 10299 10292 10285 10278 10270 10262 10256
10273 10279 10282 10287 10291 10296 10299 10301 10305 10309 10312 10314 10316 10317 10318 10318 10320 10319 10322 10324 10321 10323 10324 10323 10322 10320 10318 10316 10315 10312 10308 10302 10299 10295 10289 10284 10281 10276 10269 10263 10257 10248 10241 10233
10244 10247 10252 10256 10260 10264 10270 10272 10279 10281 10283 10285 10284 10285 10286 10288 10293 10290 10291 10294 10295 10294 10292 10291 10292 10291 10290 10288 10287 10285 10283 10278 10273 10270 10266 10260 10257 10252 10247 10240 10234 10226 10219 10213
10215 10219 10225 10230 10235 10240 10245 10248 10252 10252 10253 10256 10257 10257 10259 10260 10264 10268 10267 10265 10263 10262 10263 10263 10264 10264 10262 10260 10260 10258 10256 10252 10248 10243 10240 10236 10232 10229 10223 10216 10211 10204 10198 10190
10193 10199 10203 10207 10209 10217 10222 10223 10225 10225 10226 10229 10231 10230 10233 10233 10235 10239 10239 10236 10236 10238 10238 10238 10238 10237 10236 10236 10235 10233 10230 10226 10222 10218 10215 10212 10208 10204 10199 10193 10189 10183 10176 10169